Total_Precipitation_Accumulation
0.46 0.47 0.48 0.49 0.49 0.45 0.45 0.50 0.57 0.68 0.79 1.00 1.29 1.68 1.88 2.00 2.01 2.02 1.92 1.71 1.49 1.51 1.68 1.65 1.63 1.65 1.64 1.61 1.56 1.71 1.65 1.39 1.32 1.50 1.47 1.33 1.18 1.13 1.09 1.11 1.23 1.31 1.30
0.41 0.37 0.36 0.37 0.36 0.34 0.33 0.43 0.49 0.59 0.75 1.02 1.30 1.61 1.94 2.00 2.01 2.02 1.98 1.86 1.73 1.73 1.77 1.98 2.09 2.07 2.18 2.16 1.99 2.13 2.14 1.78 1.54 1.79 2.08 1.81 1.60 1.22 1.10 1.16 1.18 1.27 1.40
0.36 0.34 0.33 0.31 0.29 0.26 0.24 0.33 0.39 0.54 0.84 1.18 1.47 1.64 1.90 2.00 2.04 2.00 2.02 2.03 1.98 1.89 1.91 2.03 2.20 2.22 2.30 2.40 2.47 2.42 2.52 2.34 1.94 1.81 2.09 1.99 1.85 1.65 1.26 1.18 1.27 1.40 1.47
0.34 0.32 0.35 0.32 0.25 0.21 0.20 0.27 0.35 0.56 0.91 1.24 1.49 1.72 2.06 2.13 2.07 2.09 2.09 2.09 2.11 2.08 2.15 2.18 2.29 2.32 2.34 2.44 2.54 2.52 2.66 2.73 2.34 2.04 1.84 1.67 1.67 1.79 1.56 1.33 1.29 1.45 1.49
0.30 0.28 0.28 0.28 0.27 0.25 0.27 0.32 0.45 0.67 0.95 1.17 1.43 1.77 2.00 2.09 2.20 2.12 2.10 2.10 2.17 2.19 2.22 2.29 2.46 2.46 2.44 2.41 2.63 2.68 2.77 2.70 2.62 2.47 2.31 2.14 1.89 1.54 1.62 1.66 1.52 1.43 1.34
0.30 0.29 0.30 0.29 0.31 0.32 0.38 0.48 0.63 0.76 0.98 1.19 1.41 1.58 1.80 1.91 2.03 2.12 2.06 2.06 2.13 2.23 2.12 2.04 2.18 2.25 2.29 2.28 2.47 2.65 2.78 2.76 2.79 2.71 2.43 2.37 2.23 1.87 1.80 1.68 1.58 1.59 1.41
0.36 0.40 0.41 0.46 0.53 0.57 0.60 0.68 0.78 0.89 1.01 1.13 1.23 1.29 1.44 1.58 1.60 1.76 1.85 1.98 1.99 2.05 2.09 1.97 1.96 1.99 1.95 1.99 2.12 2.20 2.27 2.41 2.58 2.49 2.28 2.24 2.08 2.05 2.06 1.95 1.73 1.57 1.36
0.53 0.64 0.71 0.79 0.86 0.86 0.86 0.92 0.97 0.96 0.97 1.03 1.09 1.11 1.17 1.25 1.30 1.33 1.36 1.54 1.69 1.74 1.82 1.82 1.76 1.80 1.85 1.86 1.94 1.96 1.98 2.01 2.09 2.09 2.18 2.24 2.10 2.02 1.95 1.98 2.14 1.90 1.66
0.81 0.90 1.00 1.01 1.01 1.00 0.96 0.97 0.99 0.96 0.95 0.98 0.98 0.91 0.89 0.96 1.07 1.08 1.14 1.21 1.29 1.30 1.36 1.45 1.53 1.62 1.67 1.73 1.87 1.94 1.94 1.91 1.89 1.99 2.06 2.02 2.02 1.99 1.88 1.85 2.00 2.09 1.94
1.16 1.27 1.35 1.27 1.19 1.20 1.24 1.13 1.03 0.95 0.91 0.91 0.92 0.84 0.81 0.87 0.91 0.90 0.95 0.94 0.96 0.98 1.03 1.13 1.29 1.51 1.64 1.68 1.75 1.80 1.88 1.93 1.90 1.99 2.09 2.12 2.13 2.14 2.06 1.93 1.91 1.87 1.90
1.56 1.65 1.65 1.55 1.36 1.25 1.24 1.16 1.04 0.90 0.79 0.77 0.83 0.83 0.79 0.82 0.86 0.84 0.79 0.73 0.76 0.83 0.95 0.99 1.12 1.26 1.45 1.63 1.78 1.79 1.79 1.84 1.83 1.78 1.89 2.02 2.11 2.22 2.23 2.22 2.10 1.95 1.90
1.45 1.49 1.44 1.42 1.31 1.22 1.13 1.09 0.96 0.80 0.73 0.77 0.79 0.81 0.73 0.69 0.73 0.74 0.77 0.67 0.63 0.66 0.75 0.89 1.08 1.19 1.27 1.31 1.40 1.48 1.53 1.57 1.63 1.62 1.60 1.67 1.78 1.94 2.09 2.17 2.11 2.09 1.99
1.13 1.22 1.27 1.15 1.10 1.04 0.98 1.08 1.08 0.94 0.90 0.92 0.97 0.90 0.75 0.71 0.71 0.69 0.74 0.69 0.64 0.66 0.69 0.82 0.98 1.03 1.08 1.12 1.14 1.24 1.33 1.35 1.34 1.40 1.37 1.38 1.47 1.62 1.77 1.86 1.93 2.04 2.08
0.95 0.98 1.04 0.99 1.00 0.95 0.91 1.02 1.07 1.06 1.11 1.18 1.14 0.97 0.82 0.75 0.70 0.67 0.69 0.68 0.68 0.70 0.73 0.88 0.96 0.97 0.93 1.02 1.06 1.11 1.15 1.12 1.07 1.10 1.11 1.15 1.20 1.29 1.43 1.57 1.79 1.97 2.08
0.74 0.70 0.68 0.69 0.75 0.74 0.71 0.77 0.85 0.94 1.06 1.13 1.03 0.90 0.77 0.67 0.62 0.65 0.62 0.66 0.73 0.72 0.76 0.80 0.90 0.94 0.91 0.95 1.01 1.01 0.95 0.94 0.94 0.90 0.81 0.82 0.90 0.93 1.02 1.06 1.35 1.61 1.83
0.49 0.47 0.43 0.44 0.49 0.44 0.46 0.50 0.59 0.75 0.94 1.03 0.92 0.75 0.67 0.65 0.59 0.57 0.54 0.54 0.57 0.61 0.64 0.68 0.84 0.94 0.84 0.95 0.95 0.87 0.80 0.77 0.82 0.79 0.72 0.70 0.74 0.66 0.63 0.67 0.90 1.19 1.39
0.37 0.38 0.39 0.37 0.40 0.37 0.38 0.45 0.52 0.65 0.74 0.78 0.72 0.60 0.54 0.50 0.47 0.46 0.47 0.48 0.50 0.53 0.58 0.61 0.76 0.85 0.93 0.87 0.73 0.76 0.75 0.76 0.78 0.81 0.83 0.75 0.71 0.79 0.70 0.64 0.71 0.80 0.92
0.31 0.33 0.35 0.36 0.41 0.44 0.45 0.54 0.60 0.59 0.62 0.68 0.67 0.57 0.49 0.45 0.43 0.41 0.42 0.51 0.51 0.50 0.55 0.58 0.61 0.69 0.82 0.77 0.62 0.66 0.65 0.76 0.83 0.86 0.94 0.95 0.89 0.87 0.95 0.89 0.90 0.87 0.80
0.19 0.19 0.21 0.22 0.27 0.32 0.36 0.38 0.39 0.41 0.42 0.45 0.51 0.46 0.38 0.40 0.44 0.42 0.46 0.50 0.50 0.54 0.55 0.58 0.60 0.65 0.70 0.67 0.60 0.63 0.69 0.82 0.84 0.79 0.91 0.95 0.90 0.94 1.00 1.12 1.19 1.11 0.96
0.09 0.09 0.10 0.10 0.11 0.15 0.23 0.26 0.22 0.20 0.20 0.23 0.28 0.31 0.29 0.32 0.38 0.48 0.53 0.50 0.47 0.51 0.53 0.51 0.50 0.54 0.56 0.61 0.53 0.65 0.75 0.80 0.81 0.82 0.88 1.02 0.95 0.93 0.90 0.99 1.13 1.12 0.99
0.07 0.07 0.07 0.08 0.09 0.11 0.15 0.16 0.17 0.14 0.14 0.15 0.17 0.20 0.23 0.28 0.37 0.43 0.41 0.39 0.41 0.44 0.45 0.48 0.47 0.48 0.55 0.65 0.66 0.72 0.74 0.79 0.85 0.94 0.99 0.96 1.05 0.89 0.85 0.86 0.88 0.97 0.96
0.07 0.06 0.06 0.08 0.09 0.09 0.08 0.10 0.10 0.11 0.12 0.11 0.11 0.13 0.15 0.17 0.22 0.29 0.33 0.34 0.36 0.36 0.35 0.36 0.37 0.40 0.51 0.59 0.62 0.64 0.69 0.77 0.77 0.83 0.83 0.80 0.89 0.75 0.67 0.63 0.69 0.76 0.82
0.05 0.05 0.07 0.08 0.08 0.08 0.07 0.08 0.10 0.13 0.14 0.11 0.09 0.10 0.13 0.14 0.16 0.23 0.27 0.31 0.34 0.35 0.32 0.30 0.32 0.35 0.40 0.47 0.51 0.51 0.50 0.53 0.56 0.55 0.64 0.66 0.64 0.60 0.53 0.58 0.63 0.65 0.68
0.05 0.07 0.10 0.10 0.09 0.09 0.10 0.11 0.12 0.13 0.14 0.12 0.11 0.11 0.13 0.14 0.14 0.18 0.25 0.33 0.32 0.28 0.28 0.30 0.32 0.36 0.38 0.38 0.39 0.43 0.43 0.42 0.47 0.46 0.49 0.49 0.49 0.50 0.52 0.55 0.60 0.65 0.70
0.05 0.07 0.09 0.11 0.12 0.12 0.13 0.14 0.13 0.12 0.12 0.12 0.11 0.11 0.12 0.14 0.14 0.14 0.17 0.24 0.27 0.24 0.26 0.29 0.33 0.37 0.40 0.36 0.32 0.32 0.39 0.45 0.49 0.55 0.51 0.47 0.48 0.50 0.57 0.60 0.60 0.63 0.67
0.06 0.06 0.06 0.09 0.11 0.12 0.14 0.14 0.16 0.15 0.15 0.13 0.13 0.13 0.12 0.13 0.12 0.13 0.14 0.17 0.17 0.20 0.19 0.18 0.21 0.20 0.19 0.20 0.19 0.21 0.26 0.33 0.40 0.55 0.62 0.64 0.69 0.72 0.71 0.69 0.61 0.57 0.57